This is the latest recevied weather packets stored in our database for station/object WC4PEM-15. If no packets are shown the sender has not sent any weather packets the latest 10 day(s).
| Time | Temp. | Humidity | Pressure | Rain* | Wind** | Luminosity | Snow |
|---|---|---|---|---|---|---|---|
| 1776993653 | 20° C | 81% | 1016.1 hPa | 0 mm | - | - | - |
| 1776993651 | 20° C | 81% | 1016 hPa | 0 mm | - | - | - |
| 1776993501 | 20° C | 81% | 1015.8 hPa | 0 mm | - | - | - |
| 1776993351 | 20° C | 81% | 1016.1 hPa | 0 mm | - | - | - |
| 1776993051 | 20.56° C | 81% | 1016.1 hPa | 0 mm | - | - | - |
| 1776992751 | 20° C | 81% | 1015.9 hPa | 0 mm | - | - | - |
| 1776992451 | 20° C | 81% | 1015.8 hPa | 0 mm | - | - | - |
| 1776992151 | 20.56° C | 81% | 1015.9 hPa | 0 mm | - | - | - |
| 1776991851 | 20.56° C | 80% | 1015.9 hPa | 0 mm | - | - | - |
| 1776991551 | 20.56° C | 80% | 1015.7 hPa | 0 mm | - | - | - |
| 1776991251 | 20.56° C | 80% | 1015.5 hPa | 0 mm | - | - | - |
| 1776991125 | 20.56° C | 80% | 1015.8 hPa | 0 mm | - | - | - |
| 1776990963 | 21.11° C | 80% | 1015.8 hPa | 0 mm | - | - | - |
| 1776990951 | 20.56° C | 80% | 1015.8 hPa | 0 mm | - | - | - |
| 1776990651 | 21.11° C | 80% | 1015.8 hPa | 0 mm | - | - | - |
| 1776990550 | 21.11° C | 80% | 1015.6 hPa | 0 mm | - | - | - |
| 1776990468 | 21.11° C | 79% | 1015.8 hPa | 0 mm | - | - | - |
| 1776990351 | 21.11° C | 80% | 1015.6 hPa | 0 mm | - | - | - |
| 1776990225 | 21.11° C | 79% | 1015.7 hPa | 0 mm | - | - | - |
| 1776990051 | 21.11° C | 79% | 1015.7 hPa | 0 mm | - | - | - |
| 1776989888 | 21.11° C | 79% | 1015.8 hPa | 0 mm | - | - | - |
| 1776989751 | 21.11° C | 79% | 1015.8 hPa | 0 mm | - | - | - |
| 1776989702 | 21.11° C | 78% | 1015.7 hPa | 0 mm | - | - | - |
| 1776989451 | 21.11° C | 78% | 1015.7 hPa | 0 mm | - | - | - |
| 1776989315 | 21.67° C | 77% | 1015.6 hPa | 0 mm | - | - | - |
* Rain latest hour (hover to see other rain measurements)
** Current wind speed in m/s (hover to see current wind gust speed)